Temp
-5 -6 -6 -9 -9 -7 -7 -6 -7 -8 -6 -6 -6 -6 -7 -7 -7 -6 -7 -6 -6 -6 -6 -6 -6 -6 -6 -6 -6 -6 -6 -6 -6 -6 -7 -7 -7 -7 -6 -6 -6 -7 -7 -7
-6 -6 -6 -6 -6 -6 -6 -6 -7 -8 -6 -6 -6 -6 -6 -6 -7 -7 -7 -7 -7 -6 -6 -6 -6 -6 -6 -6 -6 -6 -6 -6 -6 -6 -7 -7 -7 -7 -7 -7 -7 -7 -7 -7
-6 -8 -6 -6 -6 -6 -6 -6 -9 -6 -6 -6 -7 -8 -7 -6 -6 -7 -7 -7 -7 -6 -6 -6 -6 -6 -6 -6 -6 -6 -6 -6 -6 -7 -7 -7 -7 -7 -7 -7 -7 -7 -7 -7
-6 -6 -6 -6 -6 -6 -7 -8 -6 -6 -6 -8 -7 -7 -7 -7 -7 -7 -8 -7 -7 -7 -7 -6 -6 -6 -6 -6 -6 -6 -6 -6 -6 -6 -7 -7 -7 -7 -7 -7 -7 -7 -7 -7
-7 -6 -6 -6 -6 -6 -6 -6 -6 -6 -6 -7 -7 -7 -7 -7 -8 -8 -8 -8 -7 -7 -7 -7 -6 -6 -6 -6 -6 -6 -6 -6 -6 -6 -6 -6 -6 -7 -7 -7 -7 -8 -7 -7
-6 -6 -6 -6 -6 -6 -6 -7 -7 -6 -7 -7 -7 -7 -7 -8 -7 -7 -7 -7 -7 -7 -7 -7 -7 -6 -6 -6 -6 -6 -6 -6 -6 -6 -7 -6 -7 -6 -7 -7 -7 -7 -6 -7
-7 -7 -6 -7 -6 -6 -7 -7 -7 -7 -7 -6 -7 -7 -7 -8 -7 -8 -8 -8 -7 -7 -7 -7 -7 -7 -6 -6 -6 -6 -6 -6 -6 -6 -7 -6 -6 -7 -7 -7 -7 -7 -7 -7
-8 -8 -7 -7 -7 -9 -8 -9 -7 -7 -6 -7 -7 -7 -7 -8 -8 -8 -8 -8 -8 -7 -7 -8 -7 -7 -7 -7 -7 -6 -7 -7 -7 -7 -7 -7 -7 -7 -7 -7 -7 -7 -7 -7
-9 -8 -7 -7 -7 -8 -9 -8 -8 -8 -7 -7 -7 -8 -7 -8 -8 -9 -9 -9 -8 -8 -8 -8 -8 -8 -8 -8 -8 -7 -7 -8 -7 -7 -7 -7 -7 -7 -7 -7 -7 -7 -7 -6
-8 -8 -9 -9 -7 -7 -8 -9 -8 -8 -8 -7 -7 -8 -7 -8 -8 -9 -9 -9 -9 -9 -9 -9 -9 -8 -8 -8 -8 -8 -8 -8 -8 -8 -8 -8 -7 -7 -7 -7 -7 -7 -7 -7
-7 -7 -9 -9 -9 -9 -9 -9 -9 -8 -8 -7 -7 -7 -7 -8 -9 -9 -8 -8 -9 -9 -9 -9 -9 -9 -9 -8 -8 -8 -8 -8 -8 -8 -8 -8 -8 -7 -7 -7 -7 -7 -7 -7
-7 -7 -8 -9 -9 -9 -9 -8 -8 -8 -8 -8 -8 -7 -9 -9 -8 -8 -8 -9 -9 -9 -9 -9 -9 -9 -9 -9 -9 -9 -9 -8 -8 -8 -8 -8 -8 -7 -7 -7 -7 -7 -7 -7
-7 -7 -7 -8 -9 -9 -10 -10 -9 -10 -9 -9 -9 -8 -9 -9 -9 -8 -8 -8 -9 -9 -9 -9 -9 -9 -9 -9 -9 -9 -9 -9 -9 -9 -9 -8 -8 -8 -7 -7 -7 -7 -7 -7
-7 -7 -7 -7 -8 -9 -8 -8 -8 -9 -10 -9 -9 -9 -9 -8 -8 -9 -8 -8 -9 -9 -9 -9 -9 -9 -9 -9 -10 -9 -9 -9 -9 -9 -9 -9 -8 -8 -8 -8 -8 -8 -8 -7
-7 -7 -7 -8 -8 -8 -8 -8 -8 -8 -8 -8 -8 -9 -9 -10 -10 -8 -8 -9 -9 -9 -9 -9 -9 -9 -10 -10 -9 -10 -9 -9 -9 -9 -9 -9 -9 -9 -9 -8 -8 -8 -8 -8
-7 -8 -8 -7 -8 -7 -7 -8 -8 -8 -8 -8 -8 -9 -8 -9 -8 -8 -8 -9 -10 -10 -9 -9 -9 -9 -10 -10 -10 -10 -9 -9 -9 -9 -9 -9 -9 -9 -9 -9 -9 -8 -9 -8
-7 -7 -7 -7 -7 -7 -8 -7 -7 -8 -8 -9 -9 -9 -8 -8 -8 -8 -8 -9 -9 -10 -10 -10 -10 -10 -9 -10 -10 -10 -10 -9 -9 -8 -9 -9 -9 -9 -9 -9 -9 -9 -9 -9
-7 -8 -8 -7 -8 -8 -9 -8 -8 -8 -9 -9 -8 -10 -9 -9 -10 -10 -9 -10 -10 -10 -10 -10 -10 -10 -10 -10 -10 -10 -10 -10 -9 -9 -9 -9 -9 -9 -9 -9 -9 -9 -9 -8
-8 -8 -8 -8 -8 -9 -9 -8 -8 -9 -10 -10 -9 -10 -10 -10 -11 -13 -11 -11 -11 -11 -11 -11 -11 -11 -11 -10 -10 -10 -10 -9 -10 -9 -9 -9 -10 -9 -9 -9 -9 -9 -9 -9
-8 -8 -8 -9 -9 -9 -9 -8 -9 -11 -11 -10 -10 -12 -12 -13 -13 -14 -12 -11 -12 -12 -12 -12 -12 -12 -11 -11 -11 -10 -10 -10 -10 -8 -10 -8 -10 -9 -9 -9 -9 -9 -9 -9
-8 -8 -8 -9 -9 -10 -9 -9 -11 -12 -12 -12 -13 -12 -12 -12 -13 -13 -13 -12 -12 -12 -12 -12 -12 -12 -12 -12 -12 -11 -11 -10 -11 -10 -10 -9 -10 -9 -9 -9 -8 -9 -9 -9
-9 -9 -9 -10 -10 -11 -9 -12 -12 -12 -13 -13 -13 -13 -13 -13 -13 -13 -13 -12 -12 -12 -12 -12 -11 -11 -12 -12 -12 -12 -11 -11 -11 -11 -11 -10 -10 -10 -9 -9 -8 -8 -9 -9
-9 -9 -10 -10 -12 -11 -11 -12 -13 -13 -13 -13 -13 -14 -13 -13 -13 -12 -12 -13 -12 -12 -12 -12 -11 -11 -11 -11 -11 -11 -11 -11 -11 -11 -11 -10 -10 -9 -9 -9 -9 -9 -9 -9
-9 -9 -10 -11 -11 -12 -13 -13 -13 -13 -13 -14 -14 -13 -13 -13 -13 -12 -12 -12 -12 -12 -11 -11 -11 -11 -11 -11 -11 -11 -11 -11 -11 -11 -11 -10 -10 -10 -10 -9 -9 -8 -8 -9
-10 -10 -10 -12 -12 -13 -13 -13 -13 -14 -14 -14 -14 -13 -13 -12 -12 -12 -11 -11 -11 -11 -11 -11 -11 -11 -11 -12 -11 -11 -11 -11 -11 -11 -11 -11 -10 -10 -10 -9 -9 -8 -8 -9
-10 -11 -12 -12 -13 -13 -13 -13 -14 -14 -14 -14 -13 -13 -13 -12 -12 -12 -12 -11 -11 -12 -11 -12 -11 -11 -11 -11 -11 -11 -11 -11 -11 -11 -11 -11 -11 -10 -10 -10 -9 -9 -9 -7
Height
5910 5912 5912 5916 5919 5916 5916 5916 5915 5915 5914 5913 5911 5911 5910 5909 5906 5905 5904 5904 5902 5901 5900 5901 5901 5901 5900 5900 5900 5900 5902 5902 5904 5905 5903 5906 5906 5907 5907 5906 5907 5909 5911 5913
5910 5910 5911 5912 5913 5914 5914 5914 5915 5915 5913 5912 5911 5911 5909 5909 5908 5906 5905 5904 5903 5901 5899 5899 5899 5899 5899 5898 5899 5900 5900 5901 5902 5903 5904 5905 5904 5906 5906 5906 5908 5909 5911 5912
5907 5911 5909 5910 5912 5913 5913 5913 5914 5913 5912 5911 5912 5913 5910 5909 5908 5908 5906 5905 5904 5902 5900 5899 5898 5898 5898 5898 5897 5898 5898 5899 5900 5901 5903 5904 5904 5904 5905 5905 5907 5908 5909 5911
5906 5908 5909 5910 5911 5912 5913 5913 5912 5912 5911 5912 5912 5916 5909 5910 5908 5907 5906 5905 5904 5903 5901 5899 5898 5896 5896 5896 5896 5896 5896 5897 5898 5899 5900 5902 5902 5903 5904 5905 5906 5907 5908 5910
5906 5907 5907 5908 5909 5910 5910 5911 5911 5911 5910 5911 5916 5917 5908 5910 5910 5908 5907 5906 5903 5903 5901 5899 5898 5896 5895 5894 5893 5893 5894 5895 5896 5897 5898 5899 5900 5902 5902 5904 5905 5905 5906 5908
5904 5905 5906 5908 5908 5909 5909 5910 5912 5912 5913 5915 5914 5915 5914 5907 5906 5905 5905 5904 5903 5902 5901 5899 5897 5895 5893 5893 5892 5891 5892 5893 5893 5894 5895 5897 5898 5900 5901 5902 5903 5903 5903 5905
5904 5905 5905 5906 5907 5907 5907 5909 5914 5916 5917 5920 5911 5913 5916 5905 5904 5904 5903 5902 5902 5900 5899 5898 5896 5894 5892 5891 5890 5890 5890 5890 5890 5891 5893 5894 5896 5898 5899 5900 5901 5902 5902 5902
5909 5908 5904 5904 5904 5908 5907 5909 5914 5917 5918 5914 5911 5912 5909 5903 5902 5902 5899 5899 5899 5898 5897 5897 5896 5894 5892 5890 5888 5888 5887 5888 5888 5889 5890 5891 5892 5895 5896 5897 5898 5899 5900 5900
5905 5907 5900 5901 5901 5905 5909 5907 5911 5911 5913 5913 5912 5908 5907 5901 5902 5902 5897 5895 5895 5895 5895 5894 5895 5893 5892 5889 5887 5886 5886 5885 5886 5886 5887 5888 5890 5891 5893 5894 5895 5896 5896 5897
5899 5901 5901 5899 5898 5899 5901 5904 5905 5908 5909 5908 5908 5904 5907 5902 5901 5897 5896 5893 5891 5891 5892 5891 5890 5890 5890 5889 5887 5885 5884 5883 5883 5883 5884 5885 5887 5888 5889 5890 5891 5893 5893 5894
5894 5896 5900 5896 5897 5900 5899 5897 5899 5903 5905 5905 5906 5905 5898 5894 5892 5891 5888 5888 5888 5888 5888 5887 5887 5887 5887 5886 5885 5884 5883 5882 5881 5881 5882 5882 5884 5885 5886 5887 5888 5889 5890 5891
5889 5890 5891 5893 5894 5895 5893 5893 5895 5898 5902 5900 5898 5900 5886 5890 5884 5884 5884 5884 5884 5883 5883 5883 5883 5882 5882 5883 5883 5882 5881 5880 5879 5878 5878 5879 5880 5881 5882 5883 5885 5886 5887 5888
5885 5887 5886 5888 5893 5890 5887 5887 5889 5887 5890 5891 5892 5896 5885 5883 5880 5876 5877 5878 5877 5878 5877 5877 5877 5877 5877 5877 5877 5877 5878 5877 5877 5877 5876 5876 5875 5876 5877 5879 5881 5882 5884 5885
5879 5881 5881 5883 5884 5882 5878 5879 5880 5879 5880 5882 5883 5884 5882 5866 5863 5862 5864 5868 5868 5869 5870 5870 5870 5870 5870 5870 5870 5872 5872 5873 5873 5873 5873 5872 5872 5872 5873 5875 5877 5878 5880 5881
5873 5874 5873 5873 5873 5874 5873 5871 5870 5868 5869 5867 5868 5866 5867 5869 5848 5848 5851 5856 5856 5856 5858 5860 5861 5862 5862 5863 5863 5863 5865 5866 5867 5869 5868 5869 5869 5869 5870 5871 5872 5872 5874 5875
5867 5867 5866 5865 5864 5863 5862 5861 5860 5859 5858 5855 5853 5851 5847 5843 5841 5836 5841 5844 5843 5844 5845 5847 5849 5851 5853 5853 5854 5855 5856 5858 5858 5861 5863 5864 5864 5865 5865 5865 5866 5867 5868 5869
5861 5859 5858 5857 5856 5854 5854 5848 5849 5847 5845 5843 5841 5835 5831 5829 5827 5825 5826 5827 5828 5829 5830 5832 5834 5838 5841 5843 5844 5845 5845 5846 5848 5850 5852 5855 5858 5859 5859 5859 5861 5863 5863 5863
5853 5853 5850 5848 5848 5845 5839 5836 5834 5835 5832 5828 5822 5822 5816 5816 5814 5811 5808 5811 5811 5813 5815 5817 5819 5822 5826 5829 5832 5833 5834 5834 5834 5837 5840 5843 5846 5851 5852 5853 5855 5856 5857 5859
5846 5844 5842 5841 5837 5837 5833 5821 5821 5822 5820 5811 5806 5807 5803 5802 5802 5797 5790 5795 5795 5798 5800 5801 5804 5807 5810 5815 5817 5819 5821 5821 5818 5806 5820 5830 5834 5840 5844 5846 5847 5849 5851 5852
5839 5837 5835 5832 5828 5825 5817 5812 5812 5809 5805 5794 5797 5794 5789 5788 5787 5783 5782 5783 5784 5783 5785 5787 5789 5792 5794 5798 5801 5804 5807 5806 5807 5809 5808 5814 5823 5830 5835 5839 5840 5841 5843 5845
5830 5827 5824 5820 5817 5814 5803 5802 5800 5797 5792 5787 5784 5780 5778 5776 5775 5774 5773 5771 5770 5771 5771 5773 5775 5775 5778 5782 5786 5789 5792 5792 5795 5801 5802 5800 5815 5820 5825 5829 5831 5833 5835 5836
5821 5817 5814 5810 5804 5800 5793 5793 5789 5784 5778 5776 5774 5771 5768 5767 5767 5765 5764 5763 5761 5760 5761 5761 5762 5762 5764 5766 5770 5774 5778 5782 5782 5790 5796 5802 5805 5810 5815 5819 5821 5824 5826 5828
5813 5809 5805 5801 5796 5787 5783 5780 5776 5773 5770 5768 5764 5763 5760 5759 5759 5758 5756 5754 5752 5750 5750 5749 5749 5751 5753 5753 5754 5757 5762 5767 5771 5775 5783 5788 5792 5798 5800 5804 5808 5811 5815 5817
5799 5795 5794 5788 5783 5779 5774 5770 5765 5762 5760 5759 5756 5754 5753 5750 5750 5748 5747 5745 5743 5741 5737 5736 5736 5736 5738 5742 5742 5743 5746 5751 5755 5761 5767 5775 5780 5784 5791 5795 5799 5803 5806 5809
5791 5785 5780 5777 5771 5767 5765 5760 5755 5753 5750 5749 5747 5745 5742 5740 5738 5735 5733 5733 5731 5729 5727 5725 5723 5722 5723 5724 5728 5730 5733 5736 5740 5746 5752 5761 5767 5772 5779 5784 5785 5790 5794 5795
5778 5774 5770 5765 5761 5757 5755 5750 5746 5744 5743 5741 5738 5737 5734 5730 5727 5724 5721 5718 5715 5713 5711 5709 5706 5704 5706 5708 5711 5715 5719 5722 5725 5731 5736 5744 5753 5760 5768 5767 5770 5775 5775 5780
Wind_Speed
2 2 3 3 11 11 8 6 3 5 4 6 6 7 6 7 11 10 14 16 14 10 8 8 8 6 8 8 8 7 7 6 7 7 8 7 6 5 6 8 13 16 16 13
6 4 6 8 7 8 7 4 3 10 4 5 7 10 6 5 7 11 13 17 16 16 13 9 9 8 7 10 10 11 9 8 7 6 6 8 11 5 6 5 11 15 16 15
10 9 9 9 9 8 5 4 8 8 3 3 6 13 10 9 7 9 10 14 13 15 17 16 11 11 10 9 9 10 11 9 9 9 9 9 10 8 10 9 10 12 13 14
10 9 9 9 9 7 2 9 6 5 5 3 4 3 18 11 10 9 10 10 9 14 16 17 17 14 13 12 12 11 10 11 10 11 12 10 9 10 11 14 12 12 15 14
10 9 10 9 8 6 6 4 4 6 4 7 7 6 18 21 4 8 6 9 13 14 14 16 15 14 15 13 13 15 11 11 11 9 11 11 9 9 9 11 12 13 14 17
6 8 7 6 7 6 4 1 1 8 9 9 10 1 9 8 15 12 12 12 11 13 13 13 14 14 15 14 13 11 12 9 12 13 11 12 12 11 11 11 10 11 15 15
4 6 7 6 5 2 2 3 7 6 6 6 14 6 11 22 23 14 16 16 15 15 12 12 14 14 14 14 13 10 10 10 11 12 13 13 12 13 13 13 12 12 12 15
1 13 10 5 4 1 7 3 5 3 7 9 11 7 10 23 17 14 15 18 19 17 14 8 10 10 12 14 12 11 10 8 8 8 9 11 12 13 13 13 14 15 15 15
5 7 14 10 7 5 5 4 6 10 8 13 6 11 14 10 5 6 13 18 20 19 16 13 9 10 11 11 11 10 8 7 7 8 8 9 11 13 14 15 16 16 17 17
10 10 10 12 13 11 10 12 7 9 10 9 13 7 10 9 11 13 12 14 20 19 19 19 20 17 13 11 11 11 9 9 9 10 10 10 9 11 14 15 16 16 17 17
13 13 11 18 11 6 19 13 10 10 13 14 14 19 28 14 17 24 30 26 23 23 23 21 24 23 17 15 14 14 13 10 12 13 11 11 11 11 10 13 13 14 16 18
17 15 17 17 18 19 24 26 24 18 17 17 21 16 26 19 27 32 30 28 28 30 29 26 24 27 23 18 18 15 14 13 10 12 14 15 13 13 13 14 14 15 15 17
17 14 17 13 11 17 21 20 19 19 21 24 24 21 36 37 39 43 42 33 34 32 34 36 35 33 31 29 23 21 18 14 17 16 13 14 15 17 15 15 16 17 17 18
17 15 17 15 16 26 29 30 26 26 24 23 25 24 24 34 35 38 42 40 39 37 36 38 37 35 33 33 32 27 26 20 17 15 14 14 16 17 17 16 14 16 18 18
19 17 21 22 23 24 28 31 31 33 34 37 35 36 37 38 51 57 50 44 43 43 40 40 41 38 35 35 35 34 30 29 25 18 16 15 16 17 17 17 16 16 18 19
20 22 24 24 26 28 28 29 32 33 34 37 40 42 46 48 54 59 52 46 48 46 45 43 43 44 41 36 37 38 36 32 32 26 25 24 18 17 19 20 20 18 18 20
23 23 25 25 28 30 30 37 33 33 34 37 40 45 51 52 54 54 51 47 48 48 49 49 48 47 47 46 41 40 43 42 38 37 29 26 26 20 21 23 22 20 20 21
23 24 27 29 29 32 35 40 40 37 38 42 47 44 51 49 50 52 56 50 49 50 50 52 52 52 51 51 50 47 47 50 53 45 37 30 28 26 23 22 23 22 25 25
24 27 30 30 33 34 36 47 47 38 37 43 50 43 45 45 43 42 54 47 44 43 45 49 52 53 53 53 53 54 55 57 59 49 52 32 28 28 27 21 24 27 25 24
27 29 31 34 36 38 42 46 40 39 39 50 44 39 38 37 36 40 45 43 38 39 38 40 45 50 55 54 54 57 60 63 64 53 51 29 32 30 32 27 26 29 28 28
30 33 35 37 40 36 46 44 38 35 40 38 36 36 35 35 36 36 36 37 36 34 35 37 37 42 48 52 53 56 59 65 64 59 47 32 41 38 38 35 33 29 30 31
33 37 38 40 43 38 46 36 39 38 37 35 32 31 31 29 26 28 28 30 31 30 29 28 29 32 39 45 51 56 58 61 67 60 59 54 48 44 43 37 38 35 36 34
34 38 38 39 38 44 43 38 37 35 34 30 32 29 31 29 27 27 30 30 32 33 35 37 37 36 33 35 44 48 57 62 63 65 61 57 56 51 48 48 45 44 39 36
40 42 38 39 40 37 37 37 38 36 33 29 29 28 28 31 31 31 31 33 33 35 38 39 41 44 42 38 39 41 49 57 62 62 61 60 59 58 51 47 45 44 40 37
40 43 42 38 37 37 34 34 35 32 31 29 29 31 33 35 35 36 37 37 39 43 44 44 44 44 45 47 43 41 41 50 58 61 59 59 60 60 54 51 47 46 42 43
43 40 36 36 36 36 32 33 33 31 30 32 33 32 33 36 38 39 41 43 43 43 42 45 46 48 45 44 47 46 41 44 51 57 60 60 60 61 58 59 53 47 49 46
Wind_Direction
261 241 183 193 236 204 198 212 249 300 292 302 345 11 353 332 336 356 8 11 13 359 334 341 332 316 306 294 300 300 275 255 253 261 241 232 238 271 283 242 210 197 194 196
258 246 217 212 197 202 214 188 267 287 265 293 346 346 355 328 333 352 359 358 359 3 349 343 334 320 311 309 290 285 296 270 251 258 252 225 218 236 253 251 233 218 210 210
242 231 212 210 209 218 231 234 252 261 263 347 334 348 326 327 344 345 335 344 350 360 358 358 334 325 304 304 308 278 271 276 260 243 251 255 255 231 236 238 242 220 214 223
233 221 206 205 216 223 210 253 263 271 257 264 344 294 307 328 323 327 330 314 330 351 348 346 339 330 315 304 293 297 286 262 248 248 246 251 237 233 247 251 252 251 238 225
209 194 203 212 227 243 227 260 271 268 296 329 345 275 269 309 268 301 288 290 308 335 338 341 331 339 345 330 308 284 291 272 251 247 249 242 232 236 246 237 234 244 246 243
206 217 227 234 247 262 274 215 46 28 10 357 251 185 282 255 282 276 283 291 295 319 327 331 327 322 323 333 330 298 269 275 258 247 243 238 234 224 239 230 235 251 248 241
254 259 258 249 273 252 171 133 29 301 242 282 283 293 257 272 274 271 274 281 285 302 315 326 325 331 328 323 325 310 281 267 267 247 240 235 235 230 232 234 234 250 246 246
190 297 262 250 229 215 269 237 239 271 266 289 312 285 252 263 296 265 283 284 293 298 303 314 315 327 345 349 339 329 307 282 263 256 243 239 229 229 230 237 242 245 247 250
184 255 271 270 246 202 273 292 266 255 276 284 294 267 307 276 296 295 293 281 287 294 301 307 301 313 318 330 338 341 323 288 269 256 256 247 241 239 234 239 245 248 244 242
231 217 275 258 296 290 275 252 272 280 280 277 270 280 274 261 234 244 254 262 275 277 286 294 302 308 303 302 323 333 324 300 276 255 262 243 250 253 250 246 247 252 240 236
247 246 236 275 302 291 278 320 307 290 251 260 276 272 270 258 241 261 266 267 267 269 272 276 285 295 289 289 293 314 317 304 289 272 268 265 262 259 260 258 249 245 244 236
258 257 254 251 248 260 251 257 256 258 265 272 270 232 299 270 263 269 270 263 263 262 264 264 270 281 282 280 279 289 303 308 299 298 270 263 266 255 247 246 254 254 248 242
259 253 257 266 291 296 268 270 267 268 263 257 254 259 284 274 268 268 270 258 253 259 260 262 265 268 266 272 270 273 277 285 292 286 279 275 259 254 249 244 244 247 253 246
269 266 269 263 238 221 247 275 274 272 266 265 259 253 264 281 274 256 261 264 261 258 251 254 257 261 257 257 264 265 267 266 271 280 271 274 273 263 256 251 251 250 250 249
280 282 281 282 278 268 268 274 276 275 274 269 268 257 249 232 263 263 262 265 263 261 256 247 245 246 247 247 253 260 259 259 253 260 264 272 272 274 268 258 249 247 247 247
283 284 283 285 284 284 286 283 276 275 274 273 272 271 266 257 259 267 269 266 262 260 256 251 245 240 240 241 245 251 257 257 255 250 259 268 270 275 267 260 254 251 246 245
284 284 285 287 287 290 291 283 290 284 280 273 269 266 268 267 271 272 271 264 259 254 253 252 250 245 240 238 240 243 251 253 250 249 244 259 265 272 268 261 258 256 248 245
284 285 288 291 292 296 289 297 289 291 286 279 277 270 272 273 269 269 269 267 263 258 252 250 250 249 245 242 238 240 243 248 245 238 238 245 252 260 271 267 257 263 253 253
283 289 291 294 293 291 289 287 295 295 288 285 280 280 277 275 274 268 270 270 266 263 258 254 250 249 248 245 243 239 240 246 254 251 237 232 245 252 258 261 253 247 256 263
285 287 290 293 292 291 289 290 296 294 290 278 284 282 279 276 269 263 268 273 272 267 260 255 252 250 249 246 242 241 239 243 247 247 248 221 246 250 254 256 253 252 258 271
291 291 293 297 295 295 289 296 297 289 276 288 285 284 279 274 273 273 272 275 274 270 265 260 255 249 247 247 244 241 240 242 246 250 258 260 252 250 252 253 249 247 262 271
293 294 298 297 298 291 297 296 289 285 286 287 286 283 282 281 278 276 275 272 272 273 272 268 260 255 251 246 244 241 239 239 244 243 247 249 249 249 249 246 247 248 253 259
293 293 295 295 291 293 292 288 286 284 283 282 282 284 286 285 283 276 274 275 279 281 280 278 275 271 260 254 247 241 237 236 238 241 240 241 244 245 245 248 245 251 245 252
295 295 297 293 290 285 284 287 288 287 286 282 281 282 279 282 285 283 279 282 280 281 285 283 276 270 267 258 254 252 242 237 235 235 237 236 238 242 242 246 246 247 251 247
296 296 298 295 289 290 290 287 284 284 283 285 286 291 294 292 291 290 290 289 282 277 276 279 276 272 264 260 254 253 249 241 236 233 233 233 235 238 238 241 238 240 243 237
296 296 294 294 291 291 287 284 284 281 281 284 285 288 290 293 290 288 289 287 286 283 275 275 280 272 264 258 253 249 249 242 237 234 233 231 231 235 235 237 244 236 233 229